Location: Ostrava
(49.8330°N, 18.2830°E)
Time: 02:14:05
(UTC+02:00)

Daily predictions for brighter satellites

Satellite Brightness Start Highest point End
(mag) Time Altitude Azimuth Time Altitude Azimuth Time Altitude Azimuth
NOSS 2-3 (C) 4.3 00:03:42 25° S 00:06:25 52° ESE 00:12:09 10° NE
COS B Rocket 4.2 00:04:14 10° NNW 00:07:44 41° W 00:09:55 22° SW
H-2A R/B 4.3 00:07:19 10° SW 00:10:38 16° W 00:13:58 10° NW
Cosmos 1356 Rocket 4.5 00:10:22 25° SE 00:11:44 31° E 00:15:21 10° NNE
Cosmos 1892 3.2 00:10:31 32° SE 00:11:45 44° E 00:15:23 10° NNE
Cosmos 2227 Rocket 3.2 00:08:16 10° SW 00:13:41 46° NW 00:19:09 10° NNE
CZ-2C R/B 4.4 00:12:19 13° SE 00:16:48 36° ENE 00:21:48 10° N
Cosmos 2263 Rocket 4.1 00:16:02 12° ESE 00:18:17 15° E 00:21:22 10° ENE
GEOS 3 Rocket 3.9 00:18:38 27° S 00:21:13 52° SW 00:26:18 10° NW
Cosmos 2333 Rocket 4.4 00:18:57 10° WNW 00:21:48 14° W 00:24:38 10° SW
NOSS 3-2 (A) 4.1 00:15:39 10° NW 00:22:56 73° NE 00:30:51 10° SE
SL-16 R/B 3.3 00:18:37 10° NW 00:23:35 32° WSW 00:26:25 21° SSW
Cosmos 494 Rocket 4.0 00:21:47 10° NNW 00:27:05 88° ENE 00:30:03 27° SSE
NOSS 2-3 (D) 4.0 00:24:21 23° SSW 00:27:30 70° SE 00:33:25 10° NE
Landsat 5 3.6 00:25:28 32° S 00:27:33 79° WSW 00:32:09 10° NNW
Sich 1 Rocket 4.4 00:26:57 27° SE 00:28:50 40° E 00:33:05 10° NNE
Meteor 2-10 Rocket 3.7 00:23:22 10° NNW 00:28:56 80° W 00:32:07 27° S
BREEZE-M DEB (TANK) 3.0 00:21:05 10° WNW 00:29:43 53° SSW 00:31:11 32° SSE
H-2A R/B 2.5 00:26:42 10° NNE 00:30:55 90° E 00:32:56 31° SSW
Cosmos 2227 4.3 00:28:01 27° S 00:31:02 61° ESE 00:36:38 10° NE
Cosmos 1733 Rocket 3.1 00:29:39 32° S 00:31:37 69° E 00:36:04 10° NNE
SeaSat 1 3.5 00:30:09 23° SSW 00:32:12 31° WSW 00:36:36 10° NW
Cosmos 1689 Rocket 2.7 00:34:55 40° SSW 00:35:43 52° W 00:38:58 10° NNW
Cosmos 1825 4.0 00:34:35 18° ESE 00:35:55 21° E 00:38:50 10° NE
Cosmos 1125 Rocket 4.5 00:32:46 11° SW 00:37:39 44° WNW 00:42:46 10° NNE
CZ-2C R/B 3.2 00:33:55 10° NNE 00:38:55 44° E 00:41:26 26° SSE
Cosmos 1378 Rocket 4.1 00:35:43 10° N 00:40:01 51° ENE 00:42:12 26° SE
Nadezhda 3 Rocket 4.0 00:33:55 10° N 00:40:10 86° E 00:43:56 26° S
Cosmos 2297 Rocket 3.3 00:35:31 10° WSW 00:40:50 41° NW 00:46:12 10° NNE
Cosmos 1238 Rocket 3.1 00:36:55 10° N 00:41:06 55° ENE 00:42:31 32° SE
ALOS 2 3.2 00:39:40 28° SSW 00:41:31 44° W 00:45:45 10° NNW
ASTEX 1 3.5 00:38:29 10° N 00:43:22 69° W 00:45:58 27° SSW
Cosmos 807 4.2 00:40:26 10° N 00:43:30 90° NNE 00:44:24 46° S
Cosmos 2074 Rocket 4.3 00:39:58 21° SSW 00:44:15 62° WNW 00:50:32 10° N
Cosmos 1610 Rocket 4.4 00:40:52 25° SSW 00:44:36 85° W 00:50:47 10° N
Cosmos 1782 2.7 00:40:52 10° NNW 00:44:52 81° W 00:46:21 37° S
Meteor 1-27 Rocket 3.9 00:39:27 10° N 00:45:21 72° ENE 00:48:53 25° SSE
Cosmos 1943 3.2 00:41:27 10° NNW 00:47:12 80° ENE 00:51:00 22° SE
Helios 1A Rocket 2.9 00:45:37 10° NNE 00:49:49 79° ESE 00:51:33 35° S
Cosmos 44 3.8 00:50:59 29° S 00:53:29 53° ESE 00:58:47 10° NE
Cosmos 1340 Rocket 3.0 00:53:30 33° SSW 00:55:07 64° WNW 00:59:03 10° N
Cosmos 1607 4.0 00:49:38 10° NW 00:55:39 58° WSW 00:59:05 26° S
ATLAS 2AS CENTAUR R/B 3.6 00:48:07 10° WSW 00:55:47 59° NW 01:03:52 10° NE
CZ-4B R/B 2.7 00:55:41 25° WSW 00:56:30 28° W 00:59:32 10° NW
Cosmos 1603 4.3 00:52:16 10° NW 00:57:36 42° WSW 01:00:14 26° SSW
Meteor 2-6 Rocket 4.4 00:55:27 10° NNW 01:01:14 67° W 01:04:31 27° S
Cosmos 1242 Rocket 4.5 01:03:43 10° NNE 01:06:34 23° ENE 01:08:50 13° ESE
ATLAS 3B R/B 4.2 01:02:21 10° WNW 01:06:56 19° WSW 01:09:33 15° SW
Okean 2 Rocket 4.0 01:05:03 24° SE 01:07:11 40° E 01:11:24 10° NNE
Cosmos 1782 Rocket 4.1 01:06:52 28° SSE 01:08:49 47° E 01:13:04 10° NNE
CZ-4C R/B 2.9 01:02:06 10° NW 01:08:59 65° SW 01:14:38 19° SSE
MOS 1-B Rocket 4.0 01:06:31 27° S 01:09:37 61° WSW 01:15:12 10° NNW
Coronas F rocket 2.2 01:11:05 35° W 01:11:27 38° WNW 01:14:02 10° N
RESURS DK-1 4.1 01:11:27 17° SE 01:12:41 19° ESE 01:15:42 10° ENE
Cosmos 2154 Rocket 4.1 01:09:30 25° SSW 01:13:25 74° W 01:19:44 10° N
Cosmos 1674 Rocket 4.5 01:12:06 10° NNW 01:16:11 37° W 01:18:00 26° SW
PSLV R/B 3.8 01:20:22 32° SSE 01:22:13 89° WSW 01:26:19 10° NNW
Cosmos 921 Rocket 3.0 01:23:01 30° SW 01:24:59 71° WNW 01:29:13 10° NNE
Cosmos 2084 Rocket 3.3 01:23:21 25° SW 01:25:29 70° NW 01:29:17 10° NE
Cosmos 1606 3.2 01:22:41 10° NNW 01:26:24 46° W 01:27:42 32° SW
Cosmos 1975 Rocket 3.0 01:22:24 10° NNW 01:26:50 82° W 01:28:54 31° S
Cosmos 44 Rocket 4.3 01:26:32 11° WSW 01:31:26 49° NW 01:36:33 10° NNE
ERBS 4.3 01:29:15 10° W 01:32:22 30° NNW 01:35:30 10° NE
Cosmos 1862 3.3 01:31:12 33° SSW 01:32:53 76° W 01:36:57 10° N
Cosmos 1908 Rocket 3.9 01:35:51 28° SW 01:37:56 55° WNW 01:42:14 10° N
Cosmos 1536 Rocket 4.4 01:34:27 10° N 01:38:40 46° ENE 01:41:49 17° SE
Geosat 4.3 01:35:33 10° NNE 01:40:33 64° NW 01:44:03 20° SW
USA 234 3.2 01:34:33 10° ESE 01:41:06 86° SSW 01:47:41 10° WNW
CENTAUR R/B 3.5 01:35:32 10° NW 01:43:02 63° NE 01:51:10 10° ESE
Cosmos 2341 Rocket 4.5 01:42:14 21° SW 01:46:28 55° WNW 01:52:44 10° N
PSLV R/B 4.2 01:46:27 10° NNE 01:50:31 44° E 01:52:49 23° SSE
NOSS 3-2 (C) 4.1 01:43:29 10° NW 01:50:41 55° WSW 01:57:11 15° SSE
Cosmos 1959 Rocket 4.5 01:50:24 23° S 01:54:31 86° W 02:00:46 10° N
CZ-2C R/B 3.8 01:53:24 24° SSW 01:56:33 44° W 02:01:54 10° NNW
Cosmos 1844 Rocket 4.5 01:54:58 11° SSE 01:58:59 21° E 02:03:10 10° NE
SL-16 R/B 4.5 01:54:35 10° ESE 01:59:40 27° ENE 02:04:43 10° N
Iridium 4 Rocket 3.5 01:56:07 10° N 02:00:44 71° E 02:04:14 20° SSE
SL-8 Rocket 4.2 01:56:35 22° SSW 02:00:45 68° WNW 02:07:06 10° N
Cosmos 2263 Rocket 2.2 01:57:43 24° SSW 02:01:20 83° ESE 02:07:03 10° NNE
Cosmos 1408 3.4 01:59:39 26° SW 02:01:20 43° WNW 02:04:58 10° N
Cosmos 1867 4.0 01:57:40 10° NW 02:02:50 43° WSW 02:05:53 22° S
Cosmos 1339 Rocket 4.4 01:57:27 10° N 02:03:35 88° W 02:08:11 18° S
ERS-2 4.1 02:02:51 10° NE 02:05:47 22° E 02:08:18 12° SE
Cosmos 2151 Rocket 3.7 02:03:28 24° S 02:06:05 69° E 02:10:33 10° NNE
SL-08 R/B 4.0 02:02:26 10° SSE 02:07:13 56° ENE 02:12:00 10° N
Cosmos 1624 Rocket 4.2 02:05:27 23° S 02:08:41 64° ESE 02:13:53 10° NNE
Elektron 3 4.2 02:06:26 10° WNW 02:09:18 52° SW 02:13:33 10° SSE
Cosmos 2218 Rocket 4.1 02:05:50 22° SSW 02:10:06 70° WNW 02:16:28 10° N
USA 161 4.4 02:08:20 10° ESE 02:10:07 15° ENE 02:11:55 10° NNE
Cosmos 1825 3.3 02:09:31 21° WSW 02:11:22 34° WNW 02:14:52 10° N
SL-27 R/B 2.8 02:08:27 10° NNW 02:12:06 66° ENE 02:15:08 14° SSE
Cosmos 1812 3.2 02:09:36 10° N 02:13:28 59° ENE 02:16:25 16° SSE
Okean 1 Rocket 4.4 02:11:26 13° SSE 02:14:54 33° E 02:18:56 10° NNE
Meteor 2-8 Rocket 4.5 02:10:28 10° NNW 02:16:31 67° W 02:20:55 19° S
COSMOS 2406 3.2 02:10:41 10° NNW 02:16:31 82° WSW 02:22:16 10° SSE
ATLAS 5 CENTAUR R/B 3.5 02:11:14 10° NW 02:16:46 46° NE 02:22:45 10° ESE
NOSS 3-4 (A) 3.6 02:12:05 18° SW 02:17:02 89° NW 02:23:45 10° NE
NOSS 3-4 (C) 3.6 02:12:12 18° SW 02:17:07 90° NW 02:23:50 10° NE
CZ-2C R/B 3.8 02:14:29 10° N 02:19:05 32° WNW 02:22:57 13° WSW
Abrixas rocket 3.2 02:18:50 28° S 02:19:27 30° SSE 02:22:28 10° E
Resurs 1-4 Rocket 4.5 02:17:45 10° NE 02:20:54 16° E 02:24:02 10° ESE
Cosmos 2278 Rocket 4.3 02:19:08 10° SE 02:22:38 17° E 02:26:08 10° ENE
Cosmos 2366 rocket 4.2 02:19:50 20° SSW 02:24:08 63° WNW 02:30:20 10° N
ARIANE 5 R/B 4.5 02:22:26 10° NE 02:26:10 21° E 02:29:55 10° SE
BREEZE-M TANK 2.8 02:23:46 10° W 02:28:50 14° SSE 02:29:19 10° SE
Meteor 1-25 Rocket 4.4 02:23:11 18° S 02:27:33 72° E 02:33:21 10° NNE
Cosmos 1452 Rocket 4.4 02:26:20 15° SSE 02:30:19 41° ESE 02:35:15 10° NE
GP-B 3.5 02:27:09 10° N 02:31:35 60° E 02:35:19 14° SSE
Okean 1 3.3 02:29:23 10° N 02:33:24 85° E 02:36:33 16° S
Cosmos 1025 Rocket 4.4 02:30:09 10° N 02:34:08 36° ENE 02:38:07 10° SE
Cosmos 2082 Rocket 4.4 02:30:38 10° NNW 02:35:33 28° NE 02:40:27 10° ESE
CBERS-1 4.5 02:30:52 10° NNE 02:35:56 56° E 02:40:13 14° S
Cosmos 909 Rocket 4.3 02:33:26 18° SSW 02:38:27 79° SE 02:46:14 10° NE
Cosmos 1184 Rocket 3.9 02:37:01 21° SW 02:38:44 34° WNW 02:41:51 10° N
Cosmos 1242 Rocket 3.7 02:38:38 10° NW 02:41:38 26° W 02:43:02 20° SW
RESURS DK-1 2.9 02:47:22 17° SW 02:50:24 53° NW 02:54:30 10° NNE
Cosmos 1140 Rocket 3.6 02:48:12 10° NNW 02:53:23 79° ENE 02:58:31 10° SSE
CZ-4C R/B 4.3 02:52:21 10° WNW 02:56:38 17° WSW 02:59:45 13° SW
NPP 3.7 02:55:08 10° NNE 03:00:34 82° WNW 03:05:13 14° SSW
Cosmos 2056 Rocket 4.0 03:02:04 14° SW 03:06:25 52° WNW 03:11:32 10° NNE
Cosmos 1602 4.2 03:02:56 11° S 03:06:33 56° E 03:10:21 10° NNE
Cosmos 407 Rocket 4.2 03:02:40 10° NW 03:07:18 34° WSW 03:11:23 13° SSW
Cosmos 1850 Rocket 4.1 03:02:46 10° NNW 03:08:02 81° ENE 03:13:18 10° SSE
Cosmos 1300 Rocket 3.7 03:06:33 15° SSW 03:10:03 64° WNW 03:14:26 10° N
Cosmos 1741 Rocket 4.1 03:04:56 10° NNW 03:10:16 82° ENE 03:15:32 10° SSE
Cosmos 1633 3.8 03:07:37 10° SSE 03:10:58 37° E 03:14:21 10° NNE
COSMOS 2487 2.5 03:10:08 10° NNW 03:13:47 84° WSW 03:17:24 10° SSE
Cosmos 1934 Rocket 4.0 03:07:36 10° S 03:13:47 87° ESE 03:19:59 10° N
Spot 4 Rocket 4.3 03:08:43 10° NNE 03:13:53 71° ESE 03:19:01 10° S
Timation 2 Rocket 4.1 03:09:34 10° NNW 03:15:50 77° ENE 03:21:51 10° SE
Meteor 1-19 Rocket 4.3 03:10:36 10° NNW 03:16:26 85° W 03:22:17 10° S
Gbstr 26 Del rocket 3.7 03:14:12 14° SSW 03:16:58 32° SE 03:20:19 10° E
Cosmos 1833 Rocket 4.2 03:13:28 10° NNW 03:18:46 40° NE 03:24:01 10° ESE
CZ-2D R/B 3.1 03:14:13 10° NNE 03:19:26 44° E 03:24:38 10° S
Okean 2 4.2 03:16:34 10° N 03:20:37 53° ENE 03:24:38 10° SSE
Cosmos 1892 Rocket 3.7 03:18:46 10° N 03:23:09 74° E 03:27:28 10° SSE
USA 234 3.9 03:19:01 10° S 03:24:42 31° SW 03:30:24 10° WNW
UNKNOWN OBJECT B 4.2 03:29:35 10° NNE 03:33:26 37° E 03:37:14 10° SSE
Meteor 2-15 Rocket 4.5 03:27:19 10° NNW 03:33:29 74° W 03:39:36 10° S
UNK 3.8 03:29:01 10° SSE 03:33:38 87° WSW 03:38:21 10° NNW
CENTAUR R/B 3.4 03:26:27 10° NW 03:33:46 46° WSW 03:41:30 10° S
IRS-1D 3.8 03:28:50 10° NNE 03:33:56 69° ESE 03:38:55 10° S
Cosmos 1536 2.9 03:31:33 10° S 03:35:37 87° E 03:39:42 10° N
Meteor 1-11 Rocket 3.9 03:31:05 10° SSW 03:37:02 79° WNW 03:43:04 10° N
IRS-1C 4.4 03:32:52 10° N 03:38:07 58° WNW 03:43:21 10° SSW
ERS-2 3.1 03:36:16 10° N 03:39:41 35° WNW 03:43:05 10° SW
USA 161 2.4 03:37:41 10° SSW 03:40:16 31° W 03:42:58 10° NNW
Cosmos 1844 Rocket 2.8 03:36:38 10° SW 03:42:18 73° WNW 03:48:00 10° NNE
SL-16 R/B 2.6 03:36:36 10° S 03:42:49 70° WSW 03:49:03 10° NNW
Cosmos 2263 Rocket 3.9 03:41:23 10° W 03:45:58 24° NW 03:50:33 10° NNE
Cosmos 2123 Rocket 4.4 03:42:21 10° NNW 03:48:26 50° W 03:54:28 10° SSW
Cosmos 1605 Rocket 4.1 03:43:01 10° SSW 03:49:12 75° WNW 03:55:31 10° N
BREEZE-M DEB (TANK) 2.4 03:42:19 10° W 03:49:19 88° S 03:51:56 10° E
SME Rocket 3.0 03:46:24 10° S 03:50:07 63° WSW 03:54:37 10° NNW
Cosmos 614 Rocket 4.1 03:45:29 10° NNW 03:50:32 55° WSW 03:55:32 10° S
Cosmos 1461 3.6 03:46:28 10° SSW 03:51:05 58° ESE 03:55:35 10° NE
BREEZE-M DEB (TANK) 4.3 03:47:16 10° W 03:52:03 74° SSW 04:13:22 10° ESE
Cosmos 1844 3.8 03:46:51 10° SSW 03:52:33 80° WNW 03:58:22 10° NNE
Okean 1 Rocket 4.3 03:48:57 10° SW 03:52:50 29° WNW 03:56:47 10° N
Meteor 1-23 Rocket 4.4 03:48:06 10° NNW 03:53:46 62° W 03:59:20 10° S
Cosmos 1602 Rocket 4.2 03:49:39 10° N 03:53:56 58° ENE 03:58:13 10° SSE
Abrixas rocket 2.3 03:52:57 10° WSW 03:56:17 67° S 03:59:37 10° E
EO 1 Del DPAF 3.7 03:54:07 10° S 03:57:51 44° W 04:01:37 10° NNW
Okean O Rocket 2.8 03:55:06 10° NNE 03:59:14 40° E 04:03:19 10° SSE
Cosmos 1174 3.4 03:57:00 10° NW 04:00:59 77° SW 04:04:15 10° SSE
Resurs 1-4 Rocket 2.2 03:56:07 10° NNE 04:01:29 87° WNW 04:06:47 10° SSW
ATLAS 5 CENTAUR R/B 2.6 03:55:58 10° NW 04:01:41 52° SW 04:07:48 10° SSE
